Kelowna Airport
CYLW : now visible

Airfield :











YOU CAN JOIN US ON...

 
LOGIN :

Register | Disclaimer

   EN    FR    IT 

 









Legend :    VFR   Marginal VFR   IFR   Intensive IFR   Very Intensive IFR
Visi :
Ceiling :
>= 8 km
>= 3000ft
5 to 8 km
1000 to 3000 ft
1500m to 5 km
500 to 1000 ft
800 to 1500m
200 to 500 ft
< 800m
< 200 ft
Symbols :   Thunderstorms  Fog  Heavy snow  Heavy precipitations  Wind > 20 kt






- Airport Elevation : 1409 ft
- IATA code : YLW


CYLW - Kelowna

CURRENT METAR :
  • 170300Z AUTO 33006KT 310V100 9SM CLR 11/08 A2980 RMK SLP100 DENSITY ALT 1500FT

EXPIRED METARs :
  • 170239Z AUTO 35011KT 320V100 9SM CLR 09/07 A2981 RMK SLP103
  • 170200Z AUTO 00000KT 9SM CLR 09/08 A2982 RMK SLP108
  • 170100Z AUTO 34011KT 310V030 9SM CLR 11/08 A2983 RMK SLP108

TAF TAF CYLW
Valid from the 17 at 01:00 until the 17 at 13:00 UTC


170038Z 1701/1713 33012KT P6SM FEW080
BECMG 1703/1705 VRB03KT RMK FCST BASED ON AUTO OBS. NXT FCST BY 170700Z
CZVR FIR / North America



MET'MAP, your aeronautical weather chart ! - Copyright ORBIFLY December 2007 - Disclaimer

ORBIFLY MET'MAP TEAM :

Programming & Development : Alexandra Zaïnal
Concept & original design : Baudouin d'Aumeries
Assistance for programming : Marc-Olivier Méhu
Technical & hardware support : Manuel Goepfert

Contact : metmap@orbifly.com




SOURCES & CREDITS :

   NOAA       Earth
Advisory